User: anonymous   Login
Location: Unspecified
(0.0000°N, 0.0000°E)
Time: 05:24:59
(UTC+00:00)
Language:

USA 250 - Orbit

View from above orbital plane
View from above orbital plane
View from above satellite
View from above satellite

Ground track
Ground track

The orbit data is extracted from the following two-line orbital elements,

1 39652U 14020A   17164.93126816 0.00000000  00000-0  00000-0 0    00
2 39652   2.7875 319.6457 0003674  86.7676 273.2928  1.00270000    04
Epoch (UTC): 13 June 2017 22:21:01
Eccentricity: 0.0003674
inclination: 2.7875°
perigee height: 35771 km
apogee height: 35802 km
right ascension of ascending node: 319.6457°
argument of perigee: 86.7676°
revolutions per day: 1.00270000
mean anomaly at epoch: 273.2928°
orbit number at epoch: 0

The dashed part of the orbit path shows where the satellite is in the earth's shadow,  

DLR